Weather History for KABQ - September, 2011

Change the Weather History Date:

Tuesday, September 27, 2011

  Actual Average Record
Temperature  
Mean Temperature 74 °F 65 °F  
Max Temperature 85 °F 76 °F 90 °F (1953)
Min Temperature 62 °F 54 °F 31 °F (1912)
Degree Days  
Heating Degree Days 0 2  
Month to date heating degree days 0 18  
Since 1 July heating degree days 0 18  
Cooling Degree Days 9 2  
Month to date cooling degree days 158 151  
Year to date cooling degree days 1685 1308  
Growing Degree Days 24 (Base 50)    
Moisture  
Dew Point 35 °F    
Average Humidity 25    
Maximum Humidity 36    
Minimum Humidity 14    
Precipitation  
Precipitation T in 0.04 in 0.25 in (1941)
Month to date precipitation 0.40 0.97  
Year to date precipitation 1.91 7.25  
Snow  
Snow 0.00 in - - ()
Month to date snowfall 0.0  
Since 1 July snowfall 0.0  
Since 1 September snowfall 0.0  
Snow Depth 0.00 in    
Sea Level Pressure  
Sea Level Pressure 29.97 in    
Wind  
Wind Speed 9 mph (NE)    
Max Wind Speed 29 mph    
Max Gust Speed 36 mph    
Visibility 10 miles    
Events Rain , Thunderstorm    
T = Trace of Precipitation, MM = Missing Value Source: NWS Daily Summary

Daily Weather History Graph

Daily Weather History Graph

Search for Another Location

Airport or City:

Trip Planner

Search our weather history database for the weather conditions in past years. The results will help you decide how hot, cold, wet, or windy it might be!

Date:

Astronomy

Sep. 27, 2011 Rise Set
Actual Time 6:58 AM MDT 6:56 PM MDT
Civil Twilight 6:32 AM MDT 7:21 PM MDT
Nautical Twilight 6:03 AM MDT 7:50 PM MDT
Astronomical Twilight 5:33 AM MDT 8:20 PM MDT
Moon 7:12 AM MDT (9/27) 6:53 PM MDT (9/27)
Length of Visible Light 12h 48m
Length of Day
11h 58m
New Moon, 0% of the Moon is Illuminated
Sep 27
New Moon
Oct 3
First Quarter
Oct 11
Full
Oct 19
Last Quarter
Oct 26
New

Hourly Weather History & Observations

Time (MDT) Temp. Dew Point Humidity Pressure Visibility Wind Dir Wind Speed Gust Speed Precip Events Conditions
12:56 AM 68.0 °F 33.1 °F 27% 29.90 in 10.0 mi South 6.9 mph - N/A   Mostly Cloudy
1:56 AM 66.0 °F 32.0 °F 28% 29.91 in 10.0 mi East 3.5 mph - N/A   Scattered Clouds
2:56 AM 68.0 °F 33.1 °F 27% 29.90 in 10.0 mi ENE 3.5 mph - N/A   Mostly Cloudy
3:56 AM 66.0 °F 34.0 °F 30% 29.92 in 10.0 mi Calm Calm - N/A   Mostly Cloudy
4:56 AM 64.9 °F 34.0 °F 32% 29.93 in 10.0 mi North 5.8 mph - N/A   Scattered Clouds
5:56 AM 64.9 °F 34.0 °F 32% 29.94 in 10.0 mi Calm Calm - N/A   Clear
6:56 AM 63.0 °F 33.1 °F 33% 29.98 in 10.0 mi North 4.6 mph - N/A   Scattered Clouds
7:56 AM 64.9 °F 34.0 °F 32% 29.99 in 10.0 mi NE 3.5 mph - N/A   Scattered Clouds
8:56 AM 66.9 °F 34.0 °F 30% 30.01 in 10.0 mi NNW 5.8 mph - N/A   Scattered Clouds
9:56 AM 70.0 °F 33.1 °F 26% 30.02 in 10.0 mi NNW 4.6 mph - N/A   Partly Cloudy
10:56 AM 75.0 °F 35.1 °F 23% 30.00 in 10.0 mi NW 6.9 mph - N/A   Scattered Clouds
11:56 AM 79.0 °F 34.0 °F 20% 29.99 in 10.0 mi Variable 4.6 mph - N/A   Partly Cloudy
12:56 PM 82.0 °F 34.0 °F 18% 29.96 in 10.0 mi Calm Calm - N/A   Mostly Cloudy
1:56 PM 75.9 °F 39.9 °F 27% 29.96 in 10.0 mi North 13.8 mph 29.9 mph 0.00 in Rain Light Rain
2:04 PM 77.0 °F 41.0 °F 28% 30.19 in 10.0 mi NNE 13.8 mph 21.9 mph 0.00 in Thunderstorm Thunderstorm
2:22 PM 78.8 °F 35.6 °F 21% 30.17 in 10.0 mi NNE 12.7 mph - 0.00 in   Mostly Cloudy
2:56 PM 80.1 °F 33.1 °F 18% 29.93 in 10.0 mi North 9.2 mph - 0.00 in   Scattered Clouds
3:56 PM 84.0 °F 30.9 °F 15% 29.90 in 10.0 mi NE 6.9 mph - N/A   Scattered Clouds
4:56 PM 82.0 °F 28.9 °F 14% 29.90 in 10.0 mi Calm Calm - N/A   Scattered Clouds
5:56 PM 80.1 °F 35.1 °F 20% 29.92 in 10.0 mi East 23.0 mph 27.6 mph N/A   Mostly Cloudy
6:56 PM 77.0 °F 35.1 °F 22% 29.95 in 10.0 mi ESE 24.2 mph 27.6 mph N/A   Mostly Cloudy
7:56 PM 75.0 °F 36.0 °F 24% 29.96 in 10.0 mi East 20.7 mph - N/A   Mostly Cloudy
8:56 PM 73.0 °F 37.9 °F 28% 29.99 in 10.0 mi East 23.0 mph - N/A   Mostly Cloudy
9:56 PM 70.0 °F 41.0 °F 35% 30.01 in 10.0 mi East 19.6 mph 27.6 mph N/A   Mostly Cloudy
10:56 PM 70.0 °F 39.0 °F 32% 29.99 in 10.0 mi ESE 10.4 mph - N/A   Mostly Cloudy
11:56 PM 70.0 °F 37.9 °F 31% 29.97 in 10.0 mi North 5.8 mph - N/A   Partly Cloudy